Regional Weather Roundup
Issued by NWS

Home | Current Version | Previous Version | Text Only | Print | Product List | Glossary On
Versions: 1 2 3 4 5 6 7 8 9 10 11 12 13 14 15 16 17 18 19 20 21 22 23 24 25 26 27 28 29 30 31 32 33 34 35 36 37 38 39 40 41 42 43 44 45 46 47 48 49 50
000
ASUS42 KKEY 261210
RWRKEY

FLORIDA REGIONAL WEATHER ROUNDUP FOR THE FLORIDA KEYS
NATIONAL WEATHER SERVICE KEY WEST FLORIDA
800 AM EDT SAT MAY 26 2018

...SOUTH FLORIDA AND THE KEYS...

CITY           SKY/WX    TMP DP  RH WIND       PRES   REMARKS
FORT MYERS     PTSUNNY   73  72  96 E6        29.92R
SW REGIONAL AP PTSUNNY   72  72 100 E7        29.92S
NAPLES         RAIN      73  50  44 E7        29.91S
MIAMI          CLOUDY    78  75  90 E14       29.92R
WEST KENDALL   FAIR      75  73  93 NE5       29.91R
HOMESTEAD      LGT RAIN  76  74  93 E8        29.90R
MARATHON       CLOUDY    76  71  85 E8        29.88R
KEY WEST INTL  FAIR      79  74  84 SE12      29.87R

...INTERNATIONAL WEATHER...

CITY           SKY/WX    TMP DP  RH WIND       PRES   REMARKS
NASSAU BAHAMAS NOT AVBL
CANCUN MEXICO  MOSUNNY   70  70 100 W5        29.74R
COZUMEL MEXICO SUNNY     77  75  94 N9        29.73R

ADJACENT COASTAL WATERS...

STATION/POSITION TIME  SKY/WX   TEMP    WIND        PRES    WAVE
                                AIR SEA DIR/SP/G            HT/PER
                 (UTC)          (F)     (DEG/KT/KT) (MB)    (FT/S)
PULASKI SHOAL LI 1200            78     110/ 18/ 19 1010.9R
SAND KEY         1150            79                 1011.2R
SOMBRERO KEY     1150            79     110/ 14/ 17 1011.1R
LONG KEY         1100            78 78   90/ 13/ 15 1011.2F
MOLASSES REEF    1200            79 80  110/ 18/ 19 1012.5R
FOWEY ROCKS      1200            79 79   80/ 21/ 23 1013.4R
Buoy 42097       1130               81                N/A     4/ 5

$$



USA.gov is the U.S. government's official web portal to all federal, state and local government web resources and services.